Regional Weather Roundup
Issued by NWS

Home | Current Version | Previous Version | Graphics & Text | Print | Product List | Glossary On
Versions: 1 2 3 4 5 6 7 8 9 10 11 12 13 14 15 16 17 18 19 20 21 22 23 24 25 26 27 28 29 30 31 32 33 34 35 36 37 38 39 40 41 42 43 44 45 46 47 48 49 50
000
ASUS43 KLMK 250810
RWRKY
KENTUCKY REGIONAL WEATHER ROUNDUP
NATIONAL WEATHER SERVICE LOUISVILLE KY
300 AM EST THU DEC 25 2014

NOTE "FAIR" INDICATES FEW OR NO CLOUDS BELOW 12,000 FEET
WITH NO SIGNIFICANT WEATHER AND/OR OBSTRUCTIONS TO VISIBILITY.

KYZ001>023-026-027-061>063-070>075-250900-
WESTERN AND SOUTH CENTRAL KENTUCKY

CITY           SKY/WX    TMP DP  RH WIND       PRES   REMARKS
PADUCAH        CLOUDY    39  34  82 W10       29.96R WCI  32
HENDERSON      CLOUDY    39  34  81 SW6       29.94R WCI  35
OWENSBORO      CLOUDY    39  36  89 W8        29.95R WCI  33
HOPKINSVILLE   CLOUDY    39  35  86 SW9       29.97R WCI  33
BOWLING GREEN  CLOUDY    41  35  79 W7        29.96R
GLASGOW        CLOUDY    40  36  86 SW10      29.95R WCI  33
$$

KYZ024-025-028>034-038-045-046-053-250900-
NORTH CENTRAL KENTUCKY

CITY           SKY/WX    TMP DP  RH WIND       PRES   REMARKS
LOUISVILLE/SDF CLOUDY    40  34  79 W12       29.90R WCI  33
LOUISVILLE/LOU CLOUDY    40  34  79 W9        29.90R WCI  34
FORT KNOX      CLOUDY    37  34  87 W8        29.91R WCI  31
$$

KYZ035>037-039>044-047>052-055>060-089>105-250900-
NORTHEAST KENTUCKY

CITY           SKY/WX    TMP DP  RH WIND       PRES   REMARKS
LEXINGTON      CLOUDY    38  34  85 W14G23    29.87R WCI  30
COVINGTON      CLOUDY    38  32  79 W12G21    29.81R WCI  30
FRANKFORT      CLOUDY    38  34  85 W10G20    29.87R WCI  31
$$

KYZ054-064>069-076>088-106>120-250900-
SOUTHEAST KENTUCKY

CITY           SKY/WX    TMP DP  RH WIND       PRES   REMARKS
JACKSON        CLOUDY    39  32  76 W8G21     29.86R WCI  33
LONDON         CLOUDY    40  33  76 W8        29.91R WCI  34
SOMERSET       CLOUDY    37  34  87 W10       29.94R WCI  30
MIDDLESBORO    MOCLDY    40  32  75 CALM      29.92R
MONTICELLO     PTSUNNY   40  36  86 W13       29.96R WCI  32
$$



USA.gov is the U.S. government's official web portal to all federal, state and local government web resources and services.